Bryce Canyon, UT

2:21 PM MST on December 08, 2019 (GMT -0700)
Bryce Canyon

Weather History for KBCE - October, 2019

Change the Weather History Date:

Tuesday, October 29, 2019

  Actual Average Record
Temperature  
Mean Temperature 24 °F -  
Max Temperature 39 °F 51 °F 69 °F (2008)
Min Temperature 6 °F 23 °F 6 °F (2019)
Degree Days  
Heating Degree Days 42    
Moisture  
Dew Point 0 °F    
Average Humidity 39    
Maximum Humidity 73    
Minimum Humidity 14    
Precipitation  
Precipitation 0.00 in - - ()
Sea Level Pressure  
Sea Level Pressure 29.81 in    
Wind  
Wind Speed 12 mph (NW)    
Max Wind Speed 28 mph    
Max Gust Speed 39 mph    
Visibility 10 miles    
Events Snow    
Averages and records for this station are not official NWS values.
T = Trace of Precipitation, MM = Missing Value Source: NWS Daily Summary

Daily Weather History Graph

Daily Weather History Graph

Search for Another Location

Airport or City:

Astronomy

Oct. 29, 2019 Rise Set
Actual Time 7:50 AM MDT 6:33 PM MDT
Civil Twilight 7:23 AM MDT 7:00 PM MDT
Nautical Twilight 6:52 AM MDT 7:31 PM MDT
Astronomical Twilight 6:22 AM MDT 8:01 PM MDT
Moon 9:27 AM MDT (10/29) 8:02 PM MDT (10/29)
Length of Visible Light 11h 36m
Length of Day
10h 42m
Waxing Crescent, 3% of the Moon is Illuminated
Oct 29
Waxing Crescent
Nov 4
First Quarter
Nov 12
Full
Nov 19
Last Quarter
Nov 26
New

Hourly Weather History & Observations

Time (MDT) Temp. Windchill Dew Point Humidity Pressure Visibility Wind Dir Wind Speed Gust Speed Precip Events Conditions
12:53 AM 32.0 °F 20.8 °F -13.0 °F 14% 29.74 in 10.0 mi WSW 17.3 mph 24.2 mph N/A   Clear
1:53 AM 32.0 °F 25.6 °F -13.0 °F 14% 29.71 in 10.0 mi WNW 6.9 mph - N/A   Mostly Cloudy
2:53 AM 24.1 °F - -9.9 °F 22% 29.70 in 10.0 mi Calm Calm - N/A   Overcast
3:53 AM 28.0 °F 24.2 °F -9.9 °F 19% 29.67 in 10.0 mi ENE 3.5 mph - N/A   Overcast
4:53 AM 25.0 °F 20.7 °F -9.0 °F 22% 29.69 in 10.0 mi SSE 3.5 mph - N/A   Overcast
5:53 AM 24.1 °F - -8.0 °F 24% 29.70 in 10.0 mi Calm Calm - N/A   Overcast
6:53 AM 24.1 °F - -5.1 °F 28% 29.72 in 10.0 mi Calm Calm - N/A   Overcast
7:53 AM 30.0 °F 22.4 °F -4.0 °F 23% 29.70 in 10.0 mi West 8.1 mph - N/A   Overcast
8:53 AM 28.0 °F 20.8 °F -5.1 °F 24% 29.75 in 10.0 mi West 6.9 mph - N/A   Scattered Clouds
9:53 AM 37.0 °F 29.8 °F -2.9 °F 18% 29.69 in 10.0 mi West 10.4 mph 23.0 mph N/A   Clear
10:53 AM 39.0 °F 27.6 °F 1.0 °F 20% 29.70 in 10.0 mi West 27.6 mph 38.0 mph N/A   Clear
11:53 AM 37.0 °F 25.6 °F -0.0 °F 21% 29.70 in 10.0 mi NW 24.2 mph 39.1 mph N/A   Clear
12:53 PM 37.0 °F 25.6 °F -2.0 °F 19% 29.67 in 10.0 mi NW 24.2 mph 34.5 mph N/A   Clear
1:53 PM 36.0 °F 26.0 °F 3.9 °F 26% 29.69 in 10.0 mi WNW 17.3 mph 34.5 mph N/A   Clear
2:53 PM 34.0 °F 22.4 °F 10.0 °F 37% 29.75 in 10.0 mi NW 20.7 mph - N/A   Mostly Cloudy
3:53 PM 32.0 °F 19.5 °F 10.0 °F 40% 29.76 in 10.0 mi NW 21.9 mph 28.8 mph N/A   Overcast
4:53 PM 28.0 °F 14.6 °F 8.1 °F 43% 29.82 in 10.0 mi NW 20.7 mph 31.1 mph N/A   Mostly Cloudy
5:53 PM 24.1 °F 9.4 °F 5.0 °F 44% 29.88 in 10.0 mi NW 20.7 mph 29.9 mph N/A   Overcast
6:53 PM 17.1 °F 3.0 °F 7.0 °F 65% 29.95 in 10.0 mi WNW 13.8 mph - N/A   Mostly Cloudy
7:04 PM 16.0 °F -0.9 °F 8.1 °F 71% 29.94 in 8.0 mi WNW 19.6 mph 26.5 mph 0.00 in Snow Light Snow
7:13 PM 16.0 °F 0.6 °F 7.0 °F 68% 29.94 in 7.0 mi WNW 16.1 mph 25.3 mph 0.00 in Snow Light Snow
7:50 PM 15.8 °F 0.9 °F 8.6 °F 73% 29.97 in 10.0 mi NW 15.0 mph - 0.00 in   Overcast
7:53 PM 16.0 °F 1.1 °F 8.1 °F 71% 29.96 in 8.0 mi NW 15.0 mph 20.7 mph 0.00 in Snow Light Snow
8:02 PM 15.1 °F -1.6 °F 7.0 °F 70% 29.97 in 3.0 mi NW 18.4 mph 26.5 mph 0.00 in Snow Light Snow
9:53 PM 10.9 °F -4.7 °F -0.9 °F 59% 30.01 in 10.0 mi North 13.8 mph 20.7 mph N/A   Clear
10:53 PM 8.1 °F -5.3 °F -4.0 °F 58% 30.06 in 10.0 mi North 9.2 mph - N/A   Clear
11:53 PM 6.1 °F -6.8 °F -4.0 °F 63% 30.11 in 10.0 mi NW 8.1 mph - N/A   Clear